Home > Time Zones > World Clock > Weather > U.S.A. > Nome > Past weeks

Flag Weather past 2 weeks in Nome, Alaska, U.S.A.

Now
16 °F

Passing clouds.


Feels Like: 3 °F
Forecast: 9 / 18 °F
Wind: 12 mph from Northeast

Location: Nome Airport

Current Time: Nov 23, 2014 at 3:24:40 PM

Latest Report: Nov 23, 2014 at 2:53 PM


Visibility: 10 mi

Pressure: 29.62 "Hg

Humidity: 47%

Dew point: -1 °F

Location of NomeLocation

Historic Weather in Nome — Graph

°F

Nome temperature yesterday

Maximum temperature yesterday: 26 °F (at 1:53 AM)
Minimum temperature yesterday: 14 °F (at 9:53 PM)
Average temperature yesterday: 19 °F

Past Weeks' High & Low Weather Summary

 TemperatureHumidityPressure
High42 °F (Nov 15, 3:53 PM)100% (Nov 9, 9:53 AM)30.12 "Hg (Nov 9, 9:53 AM)
Low10 °F (Nov 23, 9:53 AM)36% (Nov 23, 12:53 AM)29.13 "Hg (Nov 21, 3:53 PM)
Average33 °F79%29.60 "Hg
* Reported Nov 8 1:53 PM — Nov 23 1:53 PM, Nome, Weather by CustomWeather, © 2014

Note: Actual official high and low records may vary slightly from our data, if they occured in-between our weather recording intervals... More about our weather records

Advertising

Nome weather history for previous 24 hours

 ConditionsComfort  
Time TempWeatherWind HumidityBarometerVisibility
1:53 PM
Nov 23
17 °FPassing clouds.3 mph45%29.62 "Hg10 mi
12:53 PM17 °FPassing clouds.14 mph42%29.59 "Hg10 mi
11:53 AM17 °FPassing clouds.5 mph39%29.59 "Hg10 mi
10:53 AM16 °FPassing clouds.7 mph38%29.59 "Hg10 mi
9:53 AM10 °FPassing clouds.5 mph58%29.57 "Hg10 mi
8:53 AM13 °FPassing clouds.No wind49%29.56 "Hg10 mi
7:53 AM13 °FClear.9 mph51%29.54 "Hg10 mi
6:53 AM13 °FClear.9 mph51%29.54 "Hg10 mi
5:53 AM16 °FClear.13 mph47%29.53 "Hg10 mi
4:53 AM19 °FClear.3 mph36%29.52 "Hg10 mi
3:53 AM16 °FClear.No wind47%29.51 "Hg10 mi
2:53 AM18 °FClear.14 mph43%29.51 "Hg10 mi
1:53 AM21 °FClear.22 mph40%29.49 "Hg10 mi
12:53 AM21 °FClear.14 mph36%29.50 "Hg10 mi
11:53 PM
Nov 22
20 °FPassing clouds.15 mph38%29.48 "Hg10 mi
10:53 PM16 °FPassing clouds.17 mph47%29.46 "Hg10 mi
9:53 PM14 °FPassing clouds.No wind53%29.46 "Hg10 mi
8:53 PM15 °FPassing clouds.No wind46%29.45 "Hg10 mi
7:53 PM15 °FPassing clouds.3 mph53%29.44 "Hg10 mi
6:53 PM15 °FPassing clouds.8 mph49%29.44 "Hg10 mi
5:53 PM15 °FPassing clouds.12 mph53%29.42 "Hg10 mi
4:53 PM17 °FPassing clouds.7 mph47%29.41 "Hg10 mi
3:53 PM20 °FScattered clouds.5 mph40%29.41 "Hg10 mi
Weather by CustomWeather, © 2014

See weather overviewHow to use our weather pages